CAPE
9 147 99 250 52 2 2 11 3 0 31 19 10 39 40 182 91 1 54 86 132 204 811 779 1293 1209 1924 2381 2241 2033 2071 2142 1913 1770 1882 1872 1885 2020 1959 1767 1661 1705 1749 1768 1728 1644 1566 1596 1637
67 150 31 9 1 0 8 16 13 52 11 13 88 153 136 204 386 151 55 214 197 724 1170 1111 1698 1748 2294 2380 2224 2100 1990 2149 2099 1844 1969 2020 1941 1891 1161 1053 1521 1772 1765 1750 1733 1638 1629 1559 1678
73 88 56 9 4 0 28 46 83 44 94 85 257 238 146 176 210 139 240 614 881 1201 1338 1652 1776 2052 2153 2156 2128 2003 1707 2010 1911 2200 2062 1894 1927 1659 1386 1449 1489 1936 1737 1701 1951 1643 1679 1725 1967
181 142 27 16 7 0 38 70 139 198 221 253 132 271 214 231 191 335 660 787 987 1216 1227 1472 1735 1907 2040 2053 2126 2191 2032 2237 2164 2099 2142 2159 1901 2092 1834 1844 1970 1739 1632 1715 1952 1987 1992 1905 2210
76 76 0 55 60 3 35 49 155 263 238 153 174 253 201 262 344 610 614 709 954 1049 1264 1518 1937 2112 2212 2046 2121 2247 2267 2237 2227 2211 2143 2002 2046 2062 1965 1940 2062 1753 1508 1667 1736 1781 1667 1943 1965
126 30 21 42 13 9 39 134 222 185 188 163 155 163 196 276 422 495 580 755 844 1094 1375 1430 1742 1772 2186 2023 2236 2262 2212 2160 2003 2014 1949 1951 2117 2089 2183 2217 2223 1388 1354 1496 1521 1524 1808 1979 1977
101 27 75 2 12 14 49 143 151 112 87 122 116 152 197 202 327 556 724 914 1202 1436 1464 1528 1675 1625 2119 2189 2262 2319 2246 2180 2266 2314 2245 2210 2257 2338 1683 1532 1330 1069 1077 1137 1185 1226 1406 1735 1896
102 36 76 18 1 10 52 200 172 106 111 60 49 124 176 199 478 655 789 1035 1278 1426 1505 1531 1492 1589 1870 1919 2220 2356 2337 2293 2203 2244 2334 2409 2325 2293 2339 2240 1786 1209 964 956 955 1077 1220 1372 1678
104 15 31 106 0 78 71 139 140 128 91 103 114 89 176 336 463 498 690 903 1074 1177 1373 1356 1532 1598 1810 1775 1927 2310 2438 2427 2136 2143 2571 1965 1795 1806 1728 1841 1841 1939 1663 1259 1146 1180 1303 1698 1422
179 46 54 137 71 73 138 85 202 106 76 82 92 139 265 306 335 364 510 559 798 1050 1238 1360 1542 1526 1702 1779 1633 1810 2165 1907 1799 1627 1352 1332 1268 1526 1974 2189 1747 1265 545 806 1083 1059 1579 676 359
106 106 63 53 71 67 89 139 125 71 42 22 84 128 235 232 230 261 392 422 607 871 1068 1154 1202 1403 1539 1492 1402 1732 1845 1780 1742 1382 1018 1081 1269 1114 443 268 329 326 216 144 157 192 311 555 808
191 219 102 47 39 125 166 337 60 32 61 37 84 130 193 204 169 106 123 255 293 675 959 1010 970 1265 1401 1307 1369 1394 1623 1472 1277 1047 1127 1116 897 290 251 137 187 159 132 184 284 450 644 642 444
316 229 203 169 130 140 155 240 207 30 56 51 112 103 135 161 130 90 106 192 235 474 692 702 833 1098 1242 1179 1054 934 826 646 660 892 1013 998 954 351 159 27 72 178 351 418 445 478 475 475 309
257 260 281 260 121 121 179 186 210 103 107 88 117 117 102 126 136 103 153 224 247 376 507 600 604 791 874 871 888 871 869 708 652 839 945 718 687 360 197 198 453 464 347 689 669 502 526 690 457
333 355 122 279 167 230 187 86 114 124 78 91 91 136 108 103 99 127 158 204 239 308 358 484 413 474 521 650 768 814 582 423 580 740 867 700 324 335 240 259 359 321 598 796 698 654 765 899 683
545 239 88 106 351 200 100 55 276 144 45 92 92 108 121 84 137 155 164 184 230 216 257 326 260 315 465 616 658 729 699 351 600 621 717 787 553 311 523 407 354 444 794 1186 940 1157 758 839 527
97 22 133 93 68 173 65 95 157 100 64 77 88 104 118 113 139 156 151 163 143 169 164 202 218 318 483 574 598 642 635 414 474 441 571 377 302 681 895 687 554 766 1274 1345 1367 1502 1196 693 439
21 47 58 50 45 30 0 0 83 57 67 56 74 98 127 144 132 124 124 160 79 118 148 177 210 390 340 492 495 445 590 600 633 425 798 338 685 1096 1148 741 446 953 1358 1664 1531 1208 1361 706 548
60 111 37 37 51 20 1 0 74 30 66 56 67 54 97 143 135 107 113 135 46 98 189 268 397 527 309 383 314 440 492 567 349 652 883 815 882 1047 1006 764 497 1098 1101 1701 1667 1325 1141 1238 724
155 122 74 23 30 1 0 0 9 35 48 45 50 45 61 64 124 113 98 91 39 131 181 190 257 316 315 272 322 373 404 527 545 800 917 914 919 1028 690 563 496 864 876 1435 1591 1477 1178 1113 836
186 75 70 47 23 1 0 0 0 42 33 52 41 18 33 26 60 97 105 36 34 89 84 62 206 256 243 243 235 363 507 535 550 702 861 997 993 948 917 784 672 638 651 1043 1306 1493 1194 1230 1064
151 178 108 71 13 1 0 1 0 6 30 54 73 6 36 21 55 94 114 56 29 6 20 33 153 191 237 219 205 374 430 457 425 511 599 755 919 950 886 817 593 394 356 863 1050 1260 1294 854 1056
11 372 206 75 7 7 12 0 0 10 0 8 25 10 11 43 33 101 133 105 49 34 0 0 72 127 167 236 205 240 296 348 385 408 495 641 702 616 974 898 549 522 285 736 1096 1174 1382 1149 500
432 332 148 80 23 6 12 2 0 0 2 0 9 10 27 17 44 99 127 129 94 57 5 0 33 131 178 203 191 205 217 233 283 342 311 415 438 548 825 980 448 674 439 452 890 1068 1133 1086 562
512 326 101 76 10 10 9 0 0 28 0 0 11 21 5 27 34 51 82 87 71 91 103 29 44 117 206 224 213 204 183 201 232 246 280 324 312 366 497 869 831 784 534 361 281 738 805 944 1116
496 284 137 45 0 13 40 0 1 0 5 0 25 38 18 17 24 16 30 79 68 99 141 122 49 110 248 247 195 173 196 204 194 177 223 265 262 302 265 537 828 849 602 285 49 687 563 713 747
476 309 178 156 128 94 57 10 4 0 0 0 25 25 36 32 13 8 36 76 79 116 139 165 133 78 176 252 217 183 258 251 161 168 310 204 158 328 267 267 544 783 564 548 604 738 393 431 419
645 478 241 207 61 61 31 18 0 0 0 0 21 32 29 28 21 30 58 47 71 111 151 153 155 110 114 190 165 173 292 257 282 329 315 181 234 284 336 282 272 579 575 480 572 687 734 563 451
411 418 280 83 135 63 12 28 0 0 0 36 30 54 41 11 35 33 34 35 59 92 122 171 178 144 124 165 169 219 337 205 398 335 413 413 325 232 170 144 139 309 296 370 432 578 651 550 429
354 386 287 184 1 42 49 3 76 11 21 52 37 53 33 32 16 35 45 70 64 132 118 139 177 182 165 210 213 344 278 297 402 433 456 300 225 195 168 101 168 302 172 476 534 493 675 634 567
CIN
-64 -181 -80 -153 -55 -11 -7 -38 -37 0 -23 -19 -9 -4 -69 -98 -81 -6 -191 -188 -146 -108 -35 -13 -1 -5 -1 0 0 0 0 0 0 0 0 0 0 0 0 0 0 0 0 0 0 0 0 0 0
-68 -97 -23 -135 -29 0 -33 -60 -41 -56 -30 -19 -98 -84 -96 -102 -95 -157 -181 -140 -141 -75 -21 -24 -9 -8 0 0 0 0 0 0 0 0 0 0 0 -1 -1 0 0 0 0 0 0 0 -2 -3 -2
-82 -145 -176 -84 -54 0 -60 -84 -86 -95 -99 -105 -80 -80 -95 -110 -138 -172 -164 -119 -88 -32 -14 -2 -3 0 0 0 0 0 0 0 0 0 0 -1 -2 -1 0 0 0 0 0 0 0 -5 -6 -5 -2
-63 -90 -134 -67 -95 0 -94 -103 -111 -86 -61 -71 -105 -83 -91 -85 -130 -135 -120 -102 -71 -29 -25 -8 -3 0 0 0 0 0 0 0 0 0 0 0 0 0 0 -1 0 0 0 -2 0 -1 -2 -5 0
-91 -92 0 -79 -73 -48 -84 -78 -116 -91 -96 -96 -96 -74 -86 -86 -135 -129 -127 -91 -61 -37 -11 -2 -1 0 0 0 0 0 0 0 0 0 0 0 0 0 -1 0 0 0 0 -1 0 -1 -5 -2 0
-63 -108 -44 -53 -66 -69 -74 -107 -109 -126 -141 -120 -112 -96 -56 -74 -117 -112 -111 -73 -64 -39 -2 -2 -1 -2 0 0 0 0 0 0 -2 0 0 0 -2 -1 0 0 0 0 -5 -6 -8 -10 -6 -3 0
-83 -35 -63 -8 -63 -63 -88 -85 -104 -134 -119 -105 -116 -88 -52 -74 -93 -84 -62 -38 -11 -4 -3 -4 -4 -3 -1 0 0 0 0 0 0 0 0 0 -1 -2 0 0 0 -10 -13 -13 -16 -18 -15 -5 -1
-62 -65 -51 -21 -3 -50 -72 -61 -75 -85 -111 -103 -99 -104 -93 -96 -57 -39 -29 -5 0 -3 -5 -2 -2 -2 0 -2 0 0 0 0 0 0 0 -1 0 0 0 -2 0 -2 -21 -22 -25 -24 -22 -15 -5
-54 -39 -60 -45 0 -55 -56 -55 -62 -74 -128 -88 -51 -137 -110 -86 -56 -45 -22 0 0 0 -1 -1 -2 -3 -4 -2 -8 -1 0 0 -1 -1 -1 -9 -3 -5 -9 -1 0 0 -11 -22 -22 -22 -18 -17 -20
-66 -18 -62 -75 -93 -40 -62 -50 -91 -111 -106 -128 -164 -139 -120 -91 -79 -77 -59 -31 -2 0 0 0 0 -2 -3 -11 -9 -4 -1 -5 -9 -12 -18 -23 -32 -22 -12 -9 -27 -44 -63 -50 -66 -61 -45 -94 -87
-119 -65 -127 -54 -65 -28 -48 -38 -91 -121 -104 -138 -176 -149 -107 -91 -85 -97 -75 -64 -37 -12 0 -3 -2 -2 -14 -8 -11 -2 -4 -11 -15 -25 -51 -49 -48 -51 -72 -65 -55 -52 -49 -60 -74 -77 -66 -32 -44
-45 -92 -81 -10 -3 -28 -57 -59 -52 -119 -99 -2 -169 -181 -146 -106 -107 -129 -136 -104 -97 -37 -8 -17 -27 -12 -17 -17 -19 -18 -8 -25 -40 -60 -45 -54 -68 -85 -67 -35 -43 -43 -41 -43 -40 -16 -18 -27 -60
-47 -56 -52 -48 -38 -41 -59 -58 -89 -32 -46 -133 -150 -160 -120 -81 -81 -124 -128 -113 -123 -71 -35 -55 -52 -31 -26 -34 -39 -44 -55 -71 -77 -55 -41 -49 -44 -76 -76 -116 -173 -90 -83 -81 -15 -22 -46 -57 -111
-60 -78 -57 -12 -14 -56 -45 -43 -46 -73 -26 -104 -146 -133 -89 -85 -82 -108 -117 -101 -108 -80 -63 -59 -77 -56 -58 -59 -49 -43 -42 -55 -41 -41 -64 -53 -47 -71 -56 -32 -52 -70 -35 -84 -103 -89 -47 -55 -143
-29 -60 -72 -8 -8 -20 -51 -41 -35 -31 -22 -29 -121 -122 -77 -90 -85 -114 -119 -97 -95 -84 -76 -68 -87 -70 -87 -76 -49 -50 -49 -45 -43 -58 -47 -56 -23 -35 -65 -33 -75 -248 -28 -87 -244 -244 -67 -58 -219
-24 -38 -31 -25 -4 -17 -28 -18 -63 -98 -45 -11 -104 -93 -85 -103 -91 -68 -93 -81 -73 -86 -78 -72 -71 -32 -29 -53 -52 -59 -57 -32 -63 -36 -45 -57 -31 -42 -33 -63 -193 -19 -47 -49 -39 -32 -85 -208 -210
-35 -50 -39 -25 -16 -1 -2 -19 -53 -26 -15 -17 -98 -79 -84 -62 -63 -52 -81 -80 -72 -76 -93 -81 -41 -35 -41 -50 -34 -45 -37 -15 -37 -34 -48 -48 -44 -21 -52 -204 -230 -82 -49 -57 -37 -46 -64 -205 -41
-40 -58 -57 -34 -20 -15 -5 -1 -4 -12 -1 -4 -2 -71 -78 -69 -85 -74 -87 -67 -70 -72 -72 -67 -14 -58 -43 -38 -35 -38 -34 -34 -45 -18 -50 -22 -25 -42 -59 -69 -37 -65 -55 -58 -53 -168 -54 -41 -43
-71 -44 -106 -100 -72 -76 0 0 -1 -12 -7 -2 -4 -54 -58 -76 -40 -90 -77 -59 -71 -67 -58 -30 -24 -19 -72 -31 -48 -38 -31 -37 -67 -13 -42 -28 -37 -85 -33 -40 -23 -49 -35 -36 -130 -101 -47 -64 -41
-69 -61 -60 -116 -99 -65 0 0 -4 -4 -3 -44 -14 -33 -37 -72 -39 -45 -83 -66 -123 -80 -41 -24 -40 -60 -36 -45 -42 -34 -52 -47 -45 -27 -46 -31 -49 -46 -89 -40 -53 -40 -40 -29 -51 -179 -159 -92 -83
-89 -77 -23 -129 -93 -54 0 0 0 -1 -7 -45 -60 -7 -18 -142 -142 -123 -95 -87 -112 -89 -66 -52 -35 -54 -44 -29 -30 -56 -72 -43 -50 -43 -30 -39 -48 -53 -74 -33 -59 -66 -35 -27 -46 -170 -180 -168 -55
-80 -83 -134 -139 -148 -23 0 -4 0 0 -85 -33 -24 -5 -9 -17 -155 -138 -131 -116 -71 -51 -89 -70 -36 -24 -37 -76 -77 -60 -42 -35 -38 -41 -44 -37 -21 -36 -25 -17 -21 -35 -36 -35 -58 -83 -179 -186 -162
-9 -73 -45 -77 -29 -118 -21 0 0 -37 0 -1 -20 -87 -5 -18 -152 -164 -166 -139 -93 -39 0 0 -64 -29 -24 -43 -48 -52 -39 -29 -39 -21 -40 -31 -18 -44 -109 -26 -64 -30 -121 -53 -49 -152 -160 -185 -113
-148 -58 -66 -24 -35 -52 -90 -9 0 0 -1 0 -21 -76 -5 -58 -6 -178 -187 -126 -92 -9 -13 0 -77 -45 -79 -42 -34 -41 -46 -48 -41 -39 -53 -33 -31 -18 -38 -40 -18 -31 -59 -47 -45 -53 -117 -157 -45
-74 -37 -57 -35 -67 -47 -126 0 0 -105 0 0 -81 -96 -53 -36 -18 -153 -127 -117 -82 -123 -139 -52 -129 -55 -70 -37 -26 -20 -44 -40 -37 -60 -50 -37 -37 -38 -26 -25 -30 -19 -39 -44 -34 -36 -53 -63 -129
-107 -62 -32 -28 0 -80 -102 0 -58 0 -130 0 -18 -104 -83 -34 -26 -145 -144 -133 -123 -31 -155 -112 -130 -106 -70 -40 -36 -31 -29 -27 -29 -33 -85 -56 -70 -35 -29 -25 -34 -24 -17 -44 -161 -43 -54 -116 -52
-111 -82 -78 -60 -50 -40 -122 -193 -201 0 0 0 -48 -59 -5 -113 -30 -20 -48 -108 -73 -188 -169 -143 -122 -108 -88 -68 -50 -54 -30 -25 -58 -60 -27 -64 -155 -69 -66 -44 -113 -20 -23 -38 -33 -28 -39 -56 -40
-36 -49 -21 -38 -20 -18 -81 -40 -9 0 -16 -16 -1 -40 -47 -124 -18 -17 -13 -73 -37 -190 -205 -174 -141 -112 -109 -84 -77 -62 -39 -33 -43 -23 -35 -33 -40 -52 -43 -31 -55 -36 -29 -32 -73 -86 -16 -18 -21
-96 -45 -23 -31 -20 -11 -63 -4 -99 0 0 -146 -168 -117 -51 -1 -146 -24 -12 -38 -34 -23 -213 -204 -166 -150 -113 -123 -94 -58 -17 -32 -20 -34 -45 -35 -39 -43 -105 -70 -93 -43 -30 -23 -64 -20 -18 -13 -15
-90 -50 -32 -12 -2 -52 -34 -2 -203 -228 -165 -176 -139 -177 -160 -165 -97 -101 -47 -95 -42 -255 -255 -201 -181 -162 -222 -198 -117 -54 -33 -49 -21 -22 -14 -40 -55 -45 -47 -56 -95 -49 -41 -85 -61 -37 -76 -77 -35
Wind_Speed
nan 16 nan 9 nan nan nan nan nan nan nan nan nan nan nan 10 nan nan nan nan 5 4 12 12 10 18 13 7 6 4 8 14 11 7 8 6 6 6 6 6 8 9 9 8 9 9 8 7 7
nan 13 nan nan nan nan nan nan nan nan nan nan nan 6 6 10 12 12 nan 12 6 6 9 9 5 5 5 7 7 11 6 8 11 8 7 9 8 6 6 6 10 9 9 8 9 10 8 7 7
nan nan nan nan nan nan nan nan nan nan nan nan 6 7 8 12 10 15 13 11 7 5 7 9 6 6 6 5 5 8 6 5 5 5 3 4 9 8 4 8 8 10 11 12 13 12 10 5 4
14 11 nan nan nan nan nan nan 5 6 6 4 9 4 8 14 12 12 12 10 7 6 8 8 8 7 6 7 6 6 5 2 2 3 5 6 9 13 11 10 11 11 11 13 16 15 13 7 6
nan nan nan nan nan nan nan nan 4 4 5 7 10 9 9 9 6 8 8 7 5 4 10 10 11 11 9 6 6 5 2 1 2 3 5 8 10 11 13 14 11 12 15 16 17 16 14 4 5
7 nan nan nan nan nan nan 2 1 2 6 12 8 7 9 6 9 8 4 5 5 5 10 12 11 10 8 8 7 5 3 2 1 5 7 8 10 12 12 13 14 13 18 18 19 17 14 5 6
8 nan nan nan nan nan nan 5 1 5 nan 7 11 9 7 7 3 4 4 5 6 9 10 13 13 13 11 11 9 7 7 7 5 5 5 7 10 12 15 16 16 17 18 19 19 17 13 13 8
9 nan nan nan nan nan nan 4 3 9 5 nan nan 12 11 12 6 3 5 6 9 11 11 12 13 12 13 14 11 10 8 8 6 7 4 6 13 15 18 20 16 15 16 17 19 16 13 13 11
8 nan nan 4 nan nan nan 8 6 3 nan 3 5 nan 12 11 6 5 7 9 11 11 12 13 13 13 11 14 15 11 8 6 4 7 6 11 16 18 20 17 17 17 19 19 19 16 13 12 12
8 nan nan 8 nan nan 9 nan 2 2 nan nan nan 7 13 11 9 7 11 13 13 13 15 14 15 17 18 18 14 11 9 8 8 11 13 13 15 15 15 18 19 20 22 23 21 20 18 15 16
7 9 nan nan nan nan nan 10 10 nan nan nan nan 12 12 11 8 8 12 13 16 14 17 16 17 19 18 15 13 12 12 8 7 7 11 12 16 16 17 18 19 18 22 21 21 19 17 19 18
13 13 14 nan nan 20 16 17 nan nan nan nan nan 16 12 13 10 9 10 12 14 13 17 17 18 16 16 15 15 14 17 14 12 12 14 13 15 15 14 16 17 18 20 22 20 18 18 18 18
11 13 14 22 22 14 12 11 12 nan nan nan 10 14 12 10 9 nan 7 9 12 13 16 19 20 21 18 17 17 16 15 18 16 16 15 12 14 14 15 nan nan 19 21 20 19 19 19 17 16
15 19 21 12 18 13 13 12 5 6 14 nan 11 11 11 12 13 6 6 7 11 11 15 16 19 21 18 18 17 18 21 19 21 21 14 13 14 14 16 19 20 20 21 15 16 15 16 15 15
17 19 23 21 10 9 19 nan 10 15 nan nan nan 9 7 9 nan 11 9 6 9 12 10 14 16 17 21 19 19 20 21 22 23 23 25 16 16 17 15 20 20 19 17 18 16 15 14 13 12
17 23 nan 20 17 13 20 nan 10 13 nan nan nan 10 6 nan 12 7 5 8 6 9 10 10 15 15 18 16 17 20 19 20 23 23 19 18 19 17 16 18 19 19 19 16 14 13 11 11 8
nan nan 27 nan nan 19 nan nan 30 14 nan nan nan 6 7 5 5 5 4 8 7 8 9 10 13 13 17 16 15 20 18 19 21 21 22 16 16 14 19 21 17 18 19 17 16 13 9 9 6
nan nan nan nan nan nan nan nan nan nan nan nan nan nan 8 2 6 3 3 4 nan 6 7 8 8 10 12 13 13 14 17 17 20 20 18 19 20 18 18 12 17 18 17 16 13 12 12 8 5
nan 34 nan nan nan nan nan nan nan nan nan nan nan nan nan 4 3 4 2 4 nan nan 5 7 5 6 8 13 14 13 15 16 18 18 17 16 20 19 16 15 16 18 17 18 16 12 12 11 7
30 38 nan nan nan nan nan nan nan nan nan nan nan nan nan nan 10 6 nan nan nan 7 7 7 6 5 6 8 11 11 11 12 15 14 15 15 16 16 14 14 12 12 11 13 15 14 9 6 8
26 nan nan nan nan nan nan nan nan nan nan nan nan nan nan nan nan nan 5 nan nan nan nan nan 4 4 7 5 7 10 12 12 11 12 14 12 12 13 11 10 10 11 10 10 10 10 9 7 9
22 24 34 nan nan nan nan nan nan nan nan nan nan nan nan nan nan nan 6 nan nan nan nan nan 6 4 6 6 6 2 4 5 9 9 10 11 12 10 9 9 8 8 8 7 10 9 9 9 9
nan 36 31 nan nan nan nan nan nan nan nan nan nan nan nan nan nan 8 3 3 nan nan nan nan nan 5 5 5 5 6 6 9 9 9 10 10 13 11 10 7 7 9 9 8 7 6 9 10 10
28 32 35 nan nan nan nan nan nan nan nan nan nan nan nan nan nan nan 9 13 nan nan nan nan nan 9 6 2 4 4 4 4 7 8 7 8 10 11 12 8 6 5 7 8 8 8 9 10 9
28 30 30 nan nan nan nan nan nan nan nan nan nan nan nan nan nan nan nan nan nan nan 6 nan nan 5 8 7 5 6 6 4 4 5 7 7 9 9 8 9 6 7 7 6 8 9 8 7 6
21 25 22 nan nan nan nan nan nan nan nan nan nan nan nan nan nan nan nan nan nan nan 8 7 nan 5 6 7 8 9 8 9 8 7 7 7 7 7 8 8 9 8 9 11 nan 9 7 7 6
18 16 21 26 23 nan nan nan nan nan nan nan nan nan nan nan nan nan nan nan nan 12 10 8 9 nan 11 9 10 10 11 9 7 6 9 8 9 7 5 6 7 7 8 9 10 9 10 11 10
24 16 23 21 nan nan nan nan nan nan nan nan nan nan nan nan nan nan nan nan nan 15 15 15 13 10 11 13 14 13 11 10 11 11 10 9 10 10 7 5 7 9 8 7 9 8 8 8 7
29 27 25 nan 16 nan nan nan nan nan nan nan nan nan nan nan nan nan nan nan nan nan 23 18 19 17 18 16 17 18 17 16 15 14 13 13 13 10 9 8 7 10 8 7 11 10 8 8 8
23 24 27 25 nan nan nan nan nan nan nan nan nan nan nan nan nan nan nan nan nan 25 28 22 22 21 21 21 20 21 22 21 21 20 23 17 14 14 11 12 12 11 9 11 10 9 10 9 8
Wind_Direction
nan 360 nan 31 nan nan nan nan nan nan nan nan nan nan nan 71 nan nan nan nan 26 85 93 85 45 57 67 118 79 83 142 129 116 109 145 147 154 164 158 158 155 152 156 157 160 155 149 138 156
nan 360 nan nan nan nan nan nan nan nan nan nan nan 49 91 74 65 53 nan 49 27 64 101 125 150 100 99 98 93 88 124 134 146 142 145 151 128 116 155 165 167 162 161 155 165 152 148 119 117
nan nan nan nan nan nan nan nan nan nan nan nan 37 89 77 71 51 41 50 18 11 62 86 100 101 100 104 96 87 88 88 112 134 151 157 142 122 145 152 172 160 172 161 168 167 166 174 167 140
337 358 nan nan nan nan nan nan 31 46 84 42 3 78 62 63 44 40 21 7 358 48 75 76 67 69 57 53 46 54 68 83 154 182 175 198 174 169 171 180 175 176 174 168 172 170 162 175 179
nan nan nan nan nan nan nan nan 54 64 72 50 50 49 64 74 17 17 17 21 10 58 82 78 56 48 46 48 39 27 12 135 195 206 197 188 178 178 176 165 169 177 179 176 178 172 171 181 171
307 nan nan nan nan nan nan 232 22 73 40 22 9 17 75 54 7 41 40 56 82 72 87 90 74 64 43 48 44 39 11 360 207 194 190 185 175 177 184 180 177 181 181 176 176 171 178 165 136
289 nan nan nan nan nan nan 239 158 22 nan 38 14 356 66 55 16 63 87 77 96 97 86 98 101 86 67 70 65 63 66 75 102 132 158 169 173 176 182 180 182 191 182 177 172 168 168 169 131
282 nan nan nan nan nan nan 232 30 29 54 nan nan 10 25 60 13 69 93 72 89 98 98 104 109 95 100 93 70 64 68 85 122 126 128 160 181 181 183 172 177 182 179 177 171 167 164 160 154
253 nan nan 321 nan nan nan 272 73 78 nan 13 53 nan 348 347 352 64 85 85 93 93 86 95 99 87 83 105 89 72 73 86 110 130 139 146 149 160 168 171 177 183 177 174 169 159 148 149 135
261 nan nan 258 nan nan 215 nan 25 156 nan nan nan 279 324 344 13 36 71 53 85 83 82 76 81 78 74 92 101 104 104 129 144 146 144 138 141 133 154 171 170 179 171 168 165 158 150 141 119
255 270 nan nan nan nan nan 247 195 nan nan nan nan 330 340 357 20 35 85 72 70 80 90 83 80 82 87 91 98 100 92 96 108 129 139 132 140 138 144 150 153 151 160 152 151 145 132 127 116
229 261 293 nan nan 158 178 178 nan nan nan nan nan 324 346 7 22 40 77 83 72 80 89 88 86 89 94 93 90 83 71 83 84 117 141 136 130 130 135 144 148 151 149 155 149 136 128 124 122
240 254 289 312 25 137 168 173 207 nan nan nan 301 321 351 12 38 nan 67 99 85 80 86 88 90 89 92 87 89 87 80 70 72 113 129 124 123 127 134 nan nan 146 148 150 143 141 132 136 133
247 255 269 301 304 208 169 171 214 222 291 nan 311 325 349 12 24 51 54 86 88 85 89 86 90 96 93 81 85 83 79 76 82 90 115 115 127 133 128 137 144 146 143 142 139 137 127 143 136
275 249 263 249 271 275 180 nan 233 204 nan nan nan 310 342 27 nan 37 47 57 81 100 96 93 93 93 90 91 84 84 82 83 85 93 93 113 129 123 122 135 142 139 137 136 136 131 135 141 139
255 243 nan 231 251 255 256 nan 215 161 nan nan nan 303 331 nan 32 36 64 92 104 101 87 91 91 94 93 86 85 84 82 80 86 93 106 99 104 105 117 133 126 126 132 127 136 137 147 140 129
nan nan 240 nan nan 286 nan nan 202 200 nan nan nan 294 313 5 26 24 43 93 102 94 94 95 98 97 96 93 91 87 87 87 89 93 103 105 99 104 124 132 133 132 140 142 138 137 137 128 133
nan nan nan nan nan nan nan nan nan nan nan nan nan nan 275 354 8 2 18 104 nan 130 117 110 110 106 109 123 115 101 98 91 93 90 99 102 102 101 128 134 148 147 143 139 134 139 146 148 109
nan 246 nan nan nan nan nan nan nan nan nan nan nan nan nan 274 231 238 218 176 nan nan 131 113 126 129 123 134 126 119 104 103 102 107 100 93 95 108 118 126 133 141 144 143 144 153 157 162 175
246 252 nan nan nan nan nan nan nan nan nan nan nan nan nan nan 239 208 nan nan nan 130 123 129 147 121 119 127 131 133 122 113 114 110 104 103 93 106 114 115 120 123 146 146 161 163 160 160 196
249 nan nan nan nan nan nan nan nan nan nan nan nan nan nan nan nan nan 211 nan nan nan nan nan 130 118 127 143 154 161 161 157 136 125 123 119 105 102 107 111 121 126 138 157 169 172 172 178 205
253 254 261 nan nan nan nan nan nan nan nan nan nan nan nan nan nan nan 191 nan nan nan nan nan 113 128 155 158 175 194 156 153 134 140 143 135 132 122 118 137 144 138 146 176 179 178 197 208 219
nan 251 249 nan nan nan nan nan nan nan nan nan nan nan nan nan nan 257 198 192 nan nan nan nan nan 151 156 162 180 197 196 186 182 171 158 149 144 146 140 149 157 148 163 174 183 205 225 226 234
258 239 236 nan nan nan nan nan nan nan nan nan nan nan nan nan nan nan 208 202 nan nan nan nan nan 156 156 211 189 195 193 206 207 199 193 167 157 150 152 153 159 158 176 178 184 198 223 239 250
239 238 231 nan nan nan nan nan nan nan nan nan nan nan nan nan nan nan nan nan nan nan 217 nan nan 184 166 187 217 194 185 203 207 213 213 217 193 179 165 171 191 188 192 198 198 206 217 231 249
243 246 250 nan nan nan nan nan nan nan nan nan nan nan nan nan nan nan nan nan nan nan 224 232 nan 210 210 206 190 195 204 214 215 216 213 212 222 191 191 198 211 218 212 208 nan 234 247 265 257
227 236 242 246 226 nan nan nan nan nan nan nan nan nan nan nan nan nan nan nan nan 200 220 232 248 nan 232 232 230 214 218 231 221 213 217 214 235 237 221 218 237 239 237 245 250 245 250 258 258
235 228 220 220 nan nan nan nan nan nan nan nan nan nan nan nan nan nan nan nan nan 209 222 221 231 245 241 245 245 244 240 234 236 238 235 229 234 254 256 249 249 257 249 258 259 248 255 266 266
228 231 218 nan 230 nan nan nan nan nan nan nan nan nan nan nan nan nan nan nan nan nan 225 220 229 240 239 236 241 249 250 245 243 239 234 241 239 244 257 262 269 258 246 248 247 249 258 277 269
221 225 243 238 nan nan nan nan nan nan nan nan nan nan nan nan nan nan nan nan nan 235 226 222 229 233 240 247 248 253 251 256 253 245 236 234 236 239 234 251 269 272 265 276 261 273 282 285 281